Location: Bagnolo San Vito
(45.0833°N, 10.8833°E)
Time: 21:35:30
(UTC+00:00)

Daily predictions for brighter satellites

Satellite Brightness Start Highest point End
(mag) Time Altitude Azimuth Time Altitude Azimuth Time Altitude Azimuth
Sich 1 3.3 17:29:15 10° SSW 17:33:38 78° W 17:38:05 10° N
Cosmos 1461 3.5 17:30:57 10° SW 17:35:41 73° NW 17:40:27 10° NNE
Nadezhda 3 Rocket 4.3 17:30:03 10° N 17:36:11 46° ENE 17:42:15 10° SSE
ATLAS 5 CENTAUR R/B 4.3 17:19:08 10° SW 17:36:19 56° NW 17:40:46 10° NNE
Meteor 1-25 Rocket 4.3 17:31:50 10° S 17:37:32 64° E 17:43:10 10° NNE
Cosmos 2074 Rocket 4.0 17:35:21 10° S 17:41:36 76° E 17:47:51 10° N
Cosmos 2154 Rocket 4.2 17:35:57 10° SSE 17:41:54 50° E 17:47:50 10° NNE
YAOGAN 1 2.6 17:38:57 10° SSE 17:43:10 57° ENE 17:47:26 10° N
Helios 1A Rocket 3.6 17:39:48 10° SE 17:43:27 33° ENE 17:47:05 10° N
Abrixas rocket 2.2 17:41:04 10° W 17:43:30 46° NNW 17:45:55 10° ENE
APEX 3.1 17:44:14 10° NW 17:46:59 54° WSW 17:49:37 10° SSE
Cosmos 2219 Rocket 3.7 17:45:50 10° ESE 17:48:17 13° E 17:50:45 10° ENE
COSMO-SKYMED 1 3.2 17:45:59 10° N 17:50:17 61° WNW 17:54:34 10° SSW
GP-B 4.0 17:46:54 10° SE 17:50:38 27° ENE 17:54:22 10° NNE
Cosmos 1992 Rocket 4.1 17:49:09 10° S 17:54:15 56° ESE 17:59:23 10° NNE
SL-16 R/B 2.2 17:49:10 10° SSW 17:54:50 87° ESE 18:00:34 10° NNE
Cosmos 2263 Rocket 3.3 17:50:21 10° NW 17:55:41 48° WSW 18:00:59 10° S
ARGOS 3.2 17:50:57 10° SSE 17:56:16 61° ENE 18:01:37 10° N
Meteor 1-18 Rocket 4.3 17:50:32 10° N 17:56:27 65° ENE 18:02:18 10° SSE
Cosmos 968 Rocket 3.6 17:51:20 10° NNW 17:56:39 88° WSW 18:01:55 10° SSE
USA 234 3.8 17:53:45 10° ENE 17:59:43 37° SE 18:05:40 10° SSW
Cosmos 1486 Rocket 4.0 17:55:05 10° NNW 18:00:24 88° ENE 18:05:43 10° SSE
Cosmos 1515 3.6 17:56:52 10° N 18:00:42 76° E 18:04:30 10° SSE
Okean 1 3.2 17:56:46 10° N 18:00:48 74° E 18:04:49 10° SSE
Cosmos 1633 Rocket 3.3 17:57:44 10° SSW 18:02:08 78° W 18:06:36 10° N
Cosmos 2184 Rocket 4.2 17:56:03 10° S 18:02:13 80° W 18:08:28 10° N
OBJECT-B 3.0 18:03:22 11° NE 18:03:22 11° NE 18:04:04 10° NE
SeaSat 1 2.7 17:58:20 10° NE 18:03:06 47° ESE 18:07:50 10° S
Okean 1-7 3.9 18:00:26 10° NNE 18:04:17 29° ENE 18:08:03 10° SE
H-2A R/B 2.4 18:02:10 10° S 18:07:37 78° WSW 18:13:06 10° NNW
CZ-4 R/B 1.8 18:03:49 10° S 18:07:38 64° WSW 18:11:32 10° NNW
CZ-2C R/B 2.8 18:03:11 10° NNE 18:08:32 51° E 18:13:43 10° S
SAR-Lupe-4 3.4 18:07:29 10° NNE 18:11:04 71° ESE 18:14:37 10° S
SL-8 Rocket 4.5 18:08:20 10° SSE 18:13:56 36° E 18:19:29 10° NNE
Cosmos 2237 4.2 18:08:29 10° SSW 18:14:09 68° ESE 18:19:52 10° NNE
Gbstr 26 Del rocket 4.2 18:09:58 10° WNW 18:14:09 40° N 18:18:27 14° ENE
SL-4 R/B 2.8 18:13:44 10° NW 18:16:55 30° N 18:18:38 20° ENE
USA 186 3.4 18:25:07 14° NNE 18:25:07 14° NNE 18:25:42 10° NNE
ATLAS CENTAUR R/B 0.9 18:20:22 10° SSW 18:23:57 69° ESE 18:26:57 14° NE
FALCON 9 DEB 3.3 18:21:32 10° NW 18:24:55 55° NNE 18:26:13 32° E
Cosmos 1354 Rocket 3.9 18:21:51 10° NNW 18:27:08 75° ENE 18:32:20 10° SSE
Okean-O 3.5 18:23:09 10° S 18:27:28 52° W 18:31:49 10° NNW
ERS-2 2.5 18:24:41 10° N 18:28:19 64° WNW 18:31:56 10° SSW
Cosmos 44 Rocket 4.0 18:23:25 10° NW 18:28:35 59° WSW 18:33:38 10° SSE
CSL-04 Rocket 3.7 18:23:10 10° SSE 18:28:44 89° ENE 18:34:17 10° NNW
Cosmos 2366 rocket 4.4 18:23:10 10° SSE 18:28:54 38° E 18:34:42 10° NNE
CSL-04 Debris 4.2 18:24:39 10° SSE 18:30:05 83° WSW 18:35:36 10° NNW
Cosmos 1844 Rocket 2.6 18:25:18 10° NNW 18:30:53 73° ENE 18:36:09 11° SSE
Cosmos 2084 Rocket 3.7 18:26:42 10° NW 18:31:03 71° SW 18:34:58 13° SSE
Cosmos 1666 2.8 18:29:47 10° SSE 18:33:21 46° E 18:36:56 10° NNE
HJ-1C 4.4 18:32:15 10° S 18:35:27 47° W 18:38:40 10° NNW
Cosmos 1777 Rocket 4.4 18:30:46 10° N 18:35:45 42° ENE 18:37:59 28° ESE
Cosmos 2341 Rocket 3.9 18:30:59 10° S 18:37:14 70° E 18:43:29 10° NNE
Cosmos 1503 Rocket 4.1 18:32:07 10° NNW 18:37:20 78° WSW 18:42:29 10° SSE
Meteor 1-5 Rocket 4.0 18:32:19 10° S 18:37:36 67° E 18:43:04 10° NNE
Cosmos 2333 4.3 18:32:41 10° S 18:38:05 49° ESE 18:43:33 10° NE
Cosmos 1470 Rocket 4.4 18:37:02 10° SSW 18:41:24 52° WNW 18:45:46 10° N
Cosmos 1844 3.6 18:36:55 10° NNW 18:42:43 75° ENE 18:46:58 19° SSE
Okean 3 4.0 18:38:56 10° N 18:42:53 36° ENE 18:42:57 36° ENE
Ariane Rocket 3.3 18:42:04 29° ESE 18:44:11 44° ENE 18:49:00 10° N
Cosmos 2360 Rocket 2.2 18:38:34 10° SSW 18:44:13 84° WNW 18:49:56 10° NNE
Cosmos 2278 Rocket 3.4 18:43:33 10° N 18:48:01 23° NE 18:48:36 23° ENE
Cosmos 1727 Rocket 4.4 18:45:18 10° N 18:51:06 40° ENE 18:52:56 33° ESE
Cosmos 1500 4.3 18:48:33 10° SSW 18:52:08 45° WNW 18:55:44 10° N
Cosmos 2333 Rocket 2.3 18:48:51 10° S 18:54:20 53° ESE 18:59:53 10° NE
Meteor 2-4 Rocket 4.1 18:48:44 10° NNW 18:54:33 71° W 19:00:26 10° S
Cosmos 1703 Rocket 3.6 18:50:20 10° N 18:54:45 79° W 18:59:06 10° S
Cosmos 2218 Rocket 4.0 18:49:31 10° S 18:55:48 64° E 19:02:08 10° NNE
Resurs 01 Rocket 3.1 19:12:41 24° NNE 19:12:41 24° NNE 19:14:51 10° N
Cosmos 864 Rocket 4.3 19:06:27 10° S 19:12:36 79° E 19:18:49 10° N
Cosmos 2322 Rocket 3.9 19:09:37 10° WSW 19:14:35 31° NW 19:19:34 10° N
Lacrosse 4 Rocket 2.5 19:11:56 10° SSW 19:14:29 34° S 19:14:29 34° S
Cosmos 1959 Rocket 4.3 19:11:56 10° S 19:18:01 89° E 19:24:11 10° N
SME Rocket 4.0 19:10:31 10° NNE 19:18:44 87° ESE 19:23:59 10° SSW
Cosmos 192 4.3 19:16:39 10° SSW 19:21:33 82° WNW 19:26:30 10° NNE
SJ-6B 3.4 19:22:29 48° SSW 19:23:19 59° W 19:27:20 10° NNW
COSMOS 2428 2.6 19:18:45 10° SSW 19:24:22 67° ESE 19:24:51 64° E
ASTEX 1 3.4 19:23:02 10° N 19:27:56 80° W 19:30:11 32° SSW
MOS 1 4.3 19:25:34 36° S 19:28:04 81° WSW 19:33:46 10° NNW
Meteor 1-23 Rocket 4.0 19:24:49 10° N 19:30:25 71° ENE 19:30:27 71° E
Meteor 1-11 Rocket 3.8 19:25:37 10° SSW 19:31:21 77° WNW 19:36:59 10° N
Cosmos 2219 Rocket 2.0 19:25:46 10° SSW 19:31:21 89° ESE 19:37:00 10° NNE
OBJECT-B 3.2 19:36:26 21° NW 19:36:26 21° NW 19:37:46 10° NNW
Resurs 1-3 4.2 19:38:47 52° NNW 19:38:47 52° NNW 19:42:10 10° NNW
SeaSat 1 4.3 19:36:12 10° N 19:40:25 29° NW 19:44:37 10° WSW
SJ 16-02 2.8 19:37:18 10° NNW 19:39:35 29° N 19:39:35 29° N
USA 234 3.3 19:39:54 33° NE 19:43:02 73° NNW 19:49:33 10° WSW
Cosmos 1066 Rocket 4.4 19:38:35 10° NNW 19:44:17 70° W 19:45:41 51° SSW
Cosmos 2322 4.4 19:45:54 10° SW 19:51:30 53° WNW 19:57:06 10° NNE
BREEZE-M DEB (TANK) 3.7 19:49:11 10° WNW 19:51:09 43° NW 19:51:09 43° NW
SL-4 R/B 4.5 19:53:17 10° WNW 19:54:13 17° WNW 19:54:13 17° WNW
Gbstr 26 Del rocket 4.4 19:57:05 10° WNW 20:00:59 44° NNW 20:00:59 44° NNW
ATLAS CENTAUR R/B 4.0 20:01:03 10° WNW 20:03:10 15° NW 20:03:10 15° NW
NOSS 3-3 (A) 4.4 20:11:24 10° NW 20:18:42 81° NNE 20:18:42 81° NNE
NOSS 3-3 (C) 4.4 20:11:30 10° NW 20:18:47 81° NNE 20:18:47 81° NNE
Cosmos 2278 Rocket 3.4 20:26:59 10° NNW 20:30:28 38° NW 20:30:28 38° NW
Cosmos 2333 Rocket 4.0 20:34:02 10° WSW 20:38:54 28° NW 20:43:49 10° N
Cosmos 1943 Rocket 4.4 20:46:54 10° NNW 20:48:24 17° N 20:48:24 17° N
